TimeCDT,TemperatureF,Dew PointF,Humidity,Sea Level PressureIn,VisibilityMPH,Wind Direction,Wind SpeedMPH,Gust SpeedMPH,PrecipitationIn,Events,Conditions,WindDirDegrees,DateUTC
12:53 AM,77.0,68.0,74,29.80,10.0,WSW,4.6,-,N/A,,Clear,250,2013-06-28 05:53:00
1:53 AM,75.9,68.0,76,29.80,10.0,West,3.5,-,N/A,,Clear,260,2013-06-28 06:53:00
2:53 AM,75.9,68.0,76,29.79,10.0,WSW,3.5,-,N/A,,Clear,240,2013-06-28 07:53:00
3:53 AM,75.9,68.0,76,29.78,10.0,WSW,4.6,-,N/A,,Clear,250,2013-06-28 08:53:00
4:53 AM,73.9,68.0,82,29.76,10.0,Calm,Calm,-,N/A,,Clear,0,2013-06-28 09:53:00
5:53 AM,75.0,68.0,79,29.78,10.0,SW,6.9,-,N/A,,Clear,220,2013-06-28 10:53:00
6:53 AM,75.9,69.1,79,29.77,10.0,SW,5.8,-,N/A,,Clear,230,2013-06-28 11:53:00
7:53 AM,77.0,70.0,79,29.77,10.0,West,4.6,-,N/A,,Clear,260,2013-06-28 12:53:00
8:53 AM,80.1,68.0,67,29.77,10.0,WNW,4.6,-,N/A,,Clear,290,2013-06-28 13:53:00
9:53 AM,80.1,68.0,67,29.77,10.0,WNW,4.6,-,N/A,,Partly Cloudy,290,2013-06-28 14:53:00
10:53 AM,80.1,66.9,64,29.75,10.0,Calm,Calm,-,N/A,,Overcast,0,2013-06-28 15:53:00
11:53 AM,80.1,66.9,64,29.77,10.0,West,8.1,-,N/A,,Overcast,280,2013-06-28 16:53:00
12:53 PM,82.9,66.9,58,29.75,10.0,West,9.2,-,0.00,,Mostly Cloudy,260,2013-06-28 17:53:00
1:53 PM,87.1,64.0,46,29.72,10.0,WNW,9.2,-,N/A,,Scattered Clouds,300,2013-06-28 18:53:00
2:53 PM,89.1,64.0,43,29.70,10.0,West,15.0,19.6,N/A,,Partly Cloudy,280,2013-06-28 19:53:00
3:53 PM,90.0,66.9,46,29.67,10.0,West,12.7,16.1,N/A,,Scattered Clouds,270,2013-06-28 20:53:00
4:53 PM,89.1,62.1,40,29.65,10.0,WNW,11.5,18.4,N/A,,Partly Cloudy,290,2013-06-28 21:53:00
5:53 PM,88.0,64.0,45,29.65,10.0,West,8.1,-,N/A,,Partly Cloudy,270,2013-06-28 22:53:00
6:53 PM,86.0,64.0,48,29.65,10.0,West,8.1,17.3,N/A,,Clear,280,2013-06-28 23:53:00
7:53 PM,82.9,64.0,53,29.65,10.0,WSW,5.8,-,N/A,,Clear,250,2013-06-29 00:53:00
8:53 PM,82.9,64.9,54,29.66,10.0,Calm,Calm,-,N/A,,Overcast,0,2013-06-29 01:53:00
9:53 PM,75.0,66.9,76,29.69,10.0,SW,6.9,-,0.00,,Overcast,230,2013-06-29 02:53:00
10:53 PM,73.0,66.0,79,29.70,10.0,WSW,3.5,-,N/A,,Scattered Clouds,240,2013-06-29 03:53:00
11:53 PM,72.0,66.0,81,29.70,10.0,SW,4.6,-,N/A,,Clear,230,2013-06-29 04:53:00